Temp
11 10 11 12 12 13 13 11 12 13 13 12 12 13 14 15 14 14 15 16 15 15 17 18 20 19 19 20 20 20 19 18 18 17 16 16 15 15 15 15 15 15 15 15
10 10 10 11 11 11 11 12 12 12 13 12 12 13 14 14 14 15 15 16 16 16 15 15 17 18 18 19 19 19 18 17 17 17 16 15 14 13 14 14 14 14 14 14
9 12 12 11 10 10 10 10 10 11 12 12 12 13 15 16 16 16 16 16 16 16 16 14 14 16 17 17 18 18 17 16 16 16 16 14 13 12 12 12 12 12 13 13
9 11 11 10 10 10 10 11 11 11 11 10 12 12 14 16 15 14 15 15 16 16 14 14 13 13 15 16 17 17 17 16 16 16 15 15 13 11 10 11 12 11 12 12
11 9 9 10 11 10 11 12 11 11 10 10 11 11 11 13 13 14 13 13 15 16 15 14 13 15 15 16 16 16 16 15 15 15 15 14 12 12 11 11 11 10 10 10
11 10 11 10 11 12 12 12 12 11 10 11 12 11 13 14 15 15 14 14 15 15 13 14 14 13 13 14 14 14 14 14 14 15 14 14 14 11 10 10 10 9 9 9
10 10 11 11 10 11 11 10 11 11 11 11 11 11 14 14 15 15 14 14 13 13 12 10 10 10 10 11 12 13 13 13 13 14 13 13 13 12 11 10 10 9 9 8
10 9 10 10 11 11 11 11 11 11 11 9 11 11 14 14 15 16 16 15 14 13 11 11 11 11 10 10 12 12 12 12 13 13 13 13 13 12 11 11 10 9 9 8
10 9 9 10 11 12 10 10 12 11 10 11 11 11 13 14 13 14 13 14 15 12 10 11 11 11 10 10 11 12 12 12 12 12 12 12 12 11 10 9 9 9 8 7
10 9 9 10 10 11 11 11 10 10 11 11 10 10 12 13 15 16 14 15 13 11 10 10 10 10 10 9 10 11 12 11 11 11 11 11 11 10 10 9 8 8 7 6
11 9 9 10 9 10 10 10 10 10 10 8 10 12 13 14 15 14 15 15 12 11 11 10 9 9 8 8 9 9 10 10 10 11 10 10 9 9 9 8 7 7 6 6
11 10 9 11 12 12 12 11 11 10 10 9 8 12 16 14 13 14 14 12 11 10 10 9 8 7 8 7 7 8 8 9 10 10 9 9 8 8 8 7 6 6 6 5
10 9 9 10 10 11 9 10 12 12 12 10 9 12 14 15 14 13 12 11 10 9 8 8 8 7 6 6 6 7 7 8 9 9 8 8 7 7 7 6 6 5 5 4
11 10 10 11 13 9 10 10 10 10 10 11 10 12 14 15 15 14 12 10 9 9 9 8 8 7 6 6 6 6 6 8 8 8 8 7 7 6 6 5 5 5 4 4
10 10 10 10 11 10 10 11 10 10 11 10 13 13 14 15 14 13 12 10 10 10 9 8 7 6 5 5 5 6 7 7 8 7 7 6 6 6 5 5 4 4 4 3
10 10 9 10 11 10 10 11 11 10 10 10 12 12 14 13 13 13 10 10 11 10 10 9 7 6 5 5 5 5 6 7 8 7 6 6 5 5 5 4 4 3 3 2
10 9 10 12 11 11 13 11 11 11 11 11 11 13 14 12 13 13 11 12 12 11 10 9 7 7 6 5 5 5 6 7 7 6 5 5 5 4 4 3 3 3 2 2
10 10 10 11 12 14 14 13 12 12 13 13 13 14 13 13 13 11 12 12 11 10 10 8 7 6 5 5 6 7 7 6 6 5 5 4 4 4 3 3 3 2 2 1
11 11 11 13 13 14 15 13 11 11 12 13 13 13 13 12 11 12 11 11 10 10 9 8 7 6 5 6 6 6 5 6 5 4 4 4 4 3 3 2 2 1 1 0
12 12 12 12 13 14 15 14 13 12 15 11 12 12 12 11 13 13 9 9 9 9 8 6 5 5 5 5 6 5 4 5 4 4 4 4 3 3 2 2 1 1 0 -0
12 12 12 13 13 12 14 13 13 15 15 13 12 11 12 12 11 7 6 6 6 6 5 5 5 5 4 5 6 4 4 4 4 4 3 3 2 2 2 1 1 0 -0 -1
13 13 13 13 12 13 13 14 16 13 12 11 11 11 10 7 6 6 5 5 5 4 4 4 3 3 3 5 6 3 4 3 3 3 2 2 2 1 1 0 -0 -1 -1 -2
12 12 12 12 11 12 12 13 13 11 11 9 9 7 7 6 5 4 4 4 3 3 3 3 2 2 3 5 6 3 2 3 2 2 2 1 1 0 0 -0 -1 -2 -2 -3
11 10 12 12 14 13 13 13 9 9 7 6 6 6 6 4 4 3 3 3 3 3 2 2 2 2 1 4 4 3 2 3 3 2 1 0 0 -0 -1 -1 -2 -2 -3 -3
11 11 12 11 12 11 12 11 8 6 6 6 6 6 5 5 4 4 3 2 2 2 3 3 2 0 -0 2 2 2 2 3 2 1 -0 -0 -1 -1 -1 -2 -2 -3 -3 -4
9 12 12 13 13 13 12 8 7 7 7 6 6 5 5 5 4 4 3 3 2 2 1 0 -0 -1 -0 1 1 1 2 2 1 -0 -1 -1 -1 -2 -2 -2 -3 -3 -4 -4
Height
775 781 777 773 775 771 774 782 777 775 770 774 764 752 745 743 742 738 732 728 729 728 723 722 723 723 723 725 726 727 731 735 739 745 750 758 763 769 772 775 779 782 784 785
779 776 775 774 778 780 778 776 771 771 770 770 761 740 739 737 731 727 727 722 722 721 720 717 718 720 721 722 723 724 729 733 737 741 747 753 760 768 770 774 779 783 784 785
778 765 763 771 776 780 781 782 780 776 769 763 761 729 724 712 710 711 710 712 713 714 715 715 715 715 718 719 720 721 726 732 735 739 745 753 761 767 770 775 780 783 785 786
774 765 766 771 773 778 776 771 771 771 779 777 759 742 719 711 710 708 705 705 704 704 707 707 709 712 714 715 718 721 724 730 735 738 742 746 752 762 770 774 777 782 785 786
760 766 769 769 766 770 767 764 768 769 773 775 762 763 721 713 711 707 703 700 695 692 694 697 700 701 707 712 715 719 722 729 734 738 741 746 752 760 767 773 777 781 785 787
756 761 762 763 758 760 760 764 763 768 770 754 742 758 699 709 700 696 692 689 684 683 686 688 691 696 703 710 713 718 721 728 733 737 742 745 749 758 766 772 776 781 784 787
757 754 756 756 761 758 764 766 763 760 755 743 738 746 695 696 694 691 689 684 681 680 683 688 690 694 700 706 710 716 720 726 732 738 742 746 750 755 763 770 775 780 784 787
753 759 749 748 746 751 754 758 755 747 749 763 735 728 693 686 682 677 678 676 676 678 681 684 687 689 694 701 706 714 720 725 731 738 743 748 752 759 766 771 776 780 784 787
755 755 744 744 742 743 752 751 740 747 748 742 731 711 690 681 682 677 677 673 671 675 679 682 685 687 691 698 703 708 718 725 731 737 743 749 755 761 767 772 776 780 784 787
748 751 743 741 746 741 740 743 747 746 738 730 730 724 701 686 677 671 672 668 669 672 676 678 683 687 692 699 703 710 718 724 732 739 745 751 757 763 768 773 777 781 784 787
745 754 750 744 741 733 740 739 741 738 736 748 726 705 681 677 674 676 667 661 662 664 665 673 681 687 690 700 706 711 719 724 733 740 747 753 759 764 769 774 779 782 784 787
737 744 739 727 716 715 720 720 723 723 728 728 736 690 668 675 674 670 667 663 660 660 665 671 681 689 693 699 708 713 721 725 734 742 748 755 760 765 770 775 779 782 784 786
735 739 737 723 720 715 723 713 706 705 704 714 730 677 663 664 667 670 669 669 670 671 673 678 683 689 697 703 709 716 723 727 736 744 750 757 762 767 772 775 778 782 784 785
727 729 723 710 692 713 706 701 705 709 705 698 697 677 670 667 665 666 667 670 672 675 675 684 687 691 697 706 710 719 726 730 738 746 753 759 764 768 772 776 779 781 783 784
725 716 716 703 695 699 694 689 692 698 688 694 672 679 665 664 664 664 664 670 672 674 677 685 691 695 701 707 715 723 727 734 741 748 754 760 765 770 773 776 778 780 782 783
719 712 714 696 688 687 677 674 676 677 683 686 684 674 663 663 664 664 667 668 669 671 677 687 693 698 703 710 717 724 730 737 744 750 756 762 766 770 773 776 778 780 782 783
718 715 706 680 680 673 656 657 659 662 670 676 680 658 661 670 666 660 664 663 664 671 676 687 693 697 705 712 717 724 732 740 746 752 758 763 766 771 774 777 779 780 781 782
709 709 708 687 674 653 650 649 646 652 655 661 658 656 662 664 659 656 655 659 665 671 678 687 694 701 708 714 720 726 735 741 748 754 759 763 768 771 774 777 778 780 780 780
697 699 696 681 673 661 643 651 656 659 653 653 650 653 652 659 660 655 659 660 665 672 679 686 694 701 707 713 720 728 737 744 750 755 760 765 769 772 775 777 779 779 779 779
690 695 696 690 681 671 651 650 648 649 644 652 655 652 658 656 653 656 665 665 668 672 680 688 695 701 707 716 722 731 739 746 752 757 762 766 770 773 775 777 778 778 778 777
689 689 687 684 682 675 655 652 651 652 658 646 652 655 661 661 662 671 669 669 672 678 685 691 697 702 710 718 725 734 742 749 754 759 764 768 771 774 775 776 777 777 776 775
684 682 680 682 686 683 659 653 650 656 652 652 653 653 660 669 677 686 681 680 682 685 691 695 701 710 717 723 729 738 746 752 757 762 766 770 772 774 776 776 776 775 775 774
685 678 678 682 680 663 662 658 656 657 656 656 657 662 666 675 684 684 684 686 690 692 697 702 707 715 724 729 734 741 750 755 760 764 767 770 773 775 775 775 775 775 774 772
677 677 677 673 661 660 658 657 661 662 665 665 663 666 671 679 684 686 689 693 696 701 705 709 714 722 729 735 740 746 753 758 762 765 769 772 773 774 775 775 774 773 772 770
677 675 671 672 664 663 659 661 665 668 669 669 671 673 678 679 685 690 695 700 703 707 712 716 721 728 736 741 747 752 757 760 764 767 770 773 774 775 775 774 773 772 772 771
674 666 667 664 655 656 658 665 667 669 671 673 674 680 685 686 689 695 701 706 709 713 719 723 729 734 742 746 752 757 760 763 766 769 772 773 774 774 773 772 772 772 770 769
Wind_Speed
2 3 7 10 8 10 4 3 9 4 7 7 12 17 18 14 12 13 13 12 11 11 12 18 18 13 13 15 13 13 19 25 32 33 33 29 31 28 26 23 19 16 15 13
1 10 8 5 4 5 8 13 19 13 12 10 13 24 20 17 20 18 15 16 12 10 7 7 11 13 17 17 17 16 21 28 32 34 32 33 34 27 27 22 19 16 16 15
7 3 7 9 6 5 6 11 8 14 9 12 12 25 17 18 21 23 20 19 16 12 12 8 8 19 18 19 20 21 23 30 32 33 33 34 28 28 26 23 21 18 16 15
8 9 10 5 5 8 13 8 14 13 6 7 3 10 5 4 10 11 15 13 14 14 9 8 8 11 22 22 19 21 25 29 30 34 38 43 31 26 21 27 24 20 15 14
5 4 7 14 12 7 4 6 8 10 8 6 8 6 5 5 8 9 9 11 14 16 15 13 12 21 26 22 22 22 25 28 31 35 39 37 30 21 31 28 24 20 17 13
11 3 3 6 7 14 3 4 4 3 4 11 11 9 13 7 9 8 9 11 14 12 10 12 12 18 22 21 23 25 28 28 31 33 35 35 35 35 33 28 24 20 16 13
4 12 6 4 4 7 9 3 3 5 6 7 7 11 22 6 8 8 10 11 10 9 8 9 11 11 20 25 28 28 30 30 30 31 31 29 31 34 33 28 24 20 16 13
3 5 12 12 16 7 17 10 5 5 4 4 5 8 9 9 16 18 16 14 6 6 7 10 12 12 22 25 31 28 31 32 29 28 27 28 30 31 28 24 20 16 14 12
4 6 2 5 6 9 5 11 14 5 3 3 5 8 10 9 10 12 8 11 13 8 9 11 11 16 21 25 29 34 33 31 29 27 28 29 30 28 26 21 18 16 13 11
1 6 3 3 3 10 8 1 4 6 5 5 6 7 12 9 17 14 11 12 10 7 8 9 10 12 18 21 28 32 34 33 31 30 31 30 29 26 23 20 18 15 13 10
6 4 1 5 9 11 8 9 6 3 4 4 4 6 6 11 7 9 16 12 9 12 14 12 10 15 22 23 27 32 33 35 33 32 32 30 27 25 22 19 16 13 11 8
9 3 6 15 10 16 18 13 17 7 6 4 3 17 6 5 6 7 13 10 4 8 9 11 11 15 20 23 25 29 32 36 34 33 31 29 27 24 21 18 15 12 10 7
9 5 4 4 3 8 9 18 20 19 8 14 4 14 8 12 10 5 5 4 4 6 9 11 13 13 15 19 24 27 31 35 34 33 31 28 25 22 19 17 14 11 8 6
12 5 8 12 10 3 6 16 18 17 10 14 16 23 19 15 16 7 3 5 6 7 11 9 11 12 16 20 24 27 30 34 34 31 29 26 22 20 17 15 12 9 7 4
7 7 12 21 23 18 12 12 20 19 23 12 11 18 25 18 11 6 6 7 9 11 11 10 11 12 15 20 23 27 32 33 32 30 27 24 21 18 16 13 11 8 5 4
5 5 3 17 19 18 24 24 18 21 21 21 19 22 13 9 11 12 7 10 12 12 11 11 12 12 13 20 22 27 31 32 30 28 25 23 20 17 14 12 9 7 5 4
3 3 3 9 6 12 5 10 18 14 11 17 15 23 10 13 14 12 9 12 13 13 15 13 13 13 18 22 28 28 33 31 28 26 24 21 19 16 13 10 8 5 4 5
5 3 3 6 9 4 4 4 5 13 9 16 15 16 11 11 12 8 6 11 10 12 13 12 11 15 20 26 28 33 32 29 27 25 22 19 17 14 11 8 6 4 4 8
14 3 3 4 6 6 4 1 3 5 6 12 18 14 12 3 4 3 3 4 8 11 11 11 19 22 26 29 33 33 30 28 25 23 20 17 15 13 10 7 4 4 6 8
9 10 2 3 4 4 5 5 2 3 6 11 14 14 4 4 5 1 1 4 10 12 16 19 23 25 27 28 33 32 28 26 24 21 19 15 13 11 8 5 4 5 7 9
2 3 4 4 3 7 5 8 4 4 4 3 10 11 6 4 2 6 4 9 7 11 18 23 22 21 25 31 32 27 28 24 22 20 18 15 12 9 7 5 4 6 8 11
6 3 3 2 2 4 4 4 2 3 3 3 2 2 5 7 7 3 7 9 11 13 15 20 22 21 25 30 33 27 25 23 22 20 17 14 10 8 5 4 5 7 10 12
3 5 3 6 5 4 3 3 2 2 1 3 2 4 10 11 5 6 9 10 10 11 16 20 24 25 25 27 32 29 25 24 22 19 15 12 10 6 4 5 7 9 11 13
3 3 2 3 3 4 4 1 3 4 3 3 7 8 8 13 9 11 10 10 10 12 16 22 24 22 21 25 27 29 26 22 20 17 14 11 7 5 4 5 8 10 13 15
4 3 3 4 7 5 4 2 4 6 7 10 10 9 11 13 11 10 10 11 10 15 18 21 23 23 24 29 28 24 22 19 18 15 12 8 5 4 5 7 9 12 13 12
5 6 4 4 4 2 0 5 6 6 6 8 13 12 10 10 14 12 11 11 15 17 21 23 24 28 28 29 25 20 17 14 15 13 9 6 4 5 8 11 13 11 11 14
Wind_Direction
159 178 208 203 220 243 258 267 267 268 293 316 268 275 275 277 262 265 270 266 246 250 254 261 268 255 217 207 197 187 187 190 185 173 163 160 157 156 151 149 148 148 143 137
87 240 222 215 203 228 248 265 266 275 251 261 281 278 277 265 261 254 245 256 255 254 250 238 228 212 207 206 191 179 185 182 180 176 169 160 154 152 148 144 141 141 139 134
204 204 205 186 201 213 219 234 252 256 294 270 286 283 265 257 241 245 238 236 248 239 249 231 202 208 206 202 193 184 180 180 179 174 163 153 148 141 136 141 139 136 136 129
247 242 243 199 204 191 255 199 240 252 252 255 155 286 239 279 273 238 249 235 230 227 226 217 196 191 208 204 193 188 181 182 180 174 167 161 155 148 157 148 139 133 131 123
225 195 209 226 223 174 254 179 213 229 236 274 229 276 278 235 273 269 246 228 222 226 214 207 195 199 203 194 186 185 181 182 179 175 170 163 153 155 151 144 137 133 125 116
242 177 197 208 228 213 197 236 266 274 230 248 220 206 263 231 232 230 238 230 228 229 203 205 190 176 176 182 177 177 174 176 177 177 174 173 165 153 146 144 137 131 124 115
228 233 213 208 202 189 195 166 218 225 211 250 195 205 247 261 270 256 252 256 236 230 199 170 162 159 160 171 173 174 174 169 172 177 176 172 162 158 154 149 142 137 126 115
253 295 196 194 207 180 199 201 222 235 230 256 195 235 250 214 238 254 246 255 268 246 183 181 180 170 167 168 168 169 169 164 170 170 166 165 159 153 147 145 140 132 126 117
219 254 359 204 204 175 167 213 221 264 199 240 239 286 285 250 247 262 254 249 249 209 184 186 177 170 164 165 165 166 164 160 162 160 155 152 150 148 144 140 136 130 123 119
292 285 199 195 168 260 210 251 177 201 228 234 248 260 250 314 306 286 271 250 234 199 179 170 169 162 153 155 155 161 164 157 154 152 150 147 147 145 140 137 132 129 124 119
182 215 319 143 207 200 198 223 218 261 200 201 261 257 215 230 273 294 311 282 224 191 178 166 157 148 133 140 146 150 155 150 149 149 146 144 140 138 135 133 130 127 122 114
199 236 232 235 218 207 215 221 214 216 202 231 206 264 218 252 219 358 332 289 232 165 149 139 134 132 135 135 139 143 147 147 149 147 145 140 138 136 134 131 128 124 120 113
165 224 294 279 257 234 224 227 226 235 257 232 203 256 188 243 281 354 336 14 69 112 116 127 135 135 133 130 133 140 146 146 146 146 142 139 137 136 132 128 126 126 121 108
169 211 221 251 255 201 219 221 216 224 232 238 230 262 272 289 293 313 320 152 140 137 136 145 139 133 130 133 133 139 142 147 146 146 142 139 138 136 133 131 129 125 114 93
179 250 234 254 261 252 240 223 216 217 234 238 258 247 268 280 308 265 241 159 158 159 148 156 144 134 130 127 131 139 144 147 149 145 143 140 139 138 136 133 128 118 104 64
208 272 269 274 270 255 251 241 221 217 223 241 248 266 272 305 328 313 195 175 180 166 155 151 142 137 136 138 139 140 145 149 151 147 144 143 142 140 137 132 127 118 89 42
225 248 270 282 313 293 269 246 226 225 207 208 219 238 285 287 275 286 199 190 180 169 158 157 154 146 144 147 145 142 150 153 152 148 146 145 144 140 137 132 125 103 59 15
215 208 230 285 308 327 285 333 271 214 216 209 236 236 232 250 292 307 175 176 162 156 153 146 142 134 137 141 144 151 154 155 152 147 146 145 145 139 135 128 112 83 28 5
209 195 281 292 315 278 308 157 113 177 238 207 233 259 266 337 260 166 58 126 145 154 148 142 144 140 140 145 151 151 154 153 150 147 146 147 147 140 131 119 99 48 9 354
200 219 238 329 313 339 300 353 194 200 12 179 215 247 291 356 31 333 53 112 124 123 131 134 133 134 136 144 153 148 148 151 150 151 146 144 140 131 126 111 73 21 354 348
180 208 226 255 270 289 281 311 165 43 268 353 194 219 181 188 178 341 25 57 73 113 123 125 128 132 138 149 151 138 149 150 148 144 138 132 129 125 111 91 43 6 350 340
192 186 202 123 272 309 352 334 73 260 296 300 276 163 146 113 98 151 97 94 102 107 105 113 112 114 133 147 149 137 140 143 141 136 131 129 123 115 100 56 23 357 347 343
252 186 202 177 218 249 260 266 313 271 290 308 167 116 127 118 139 106 91 89 91 98 104 111 116 113 130 145 148 133 136 139 135 132 127 126 121 101 66 27 3 355 351 345
253 186 215 6 298 271 293 10 24 37 88 64 90 103 115 126 113 103 97 96 96 97 106 116 114 110 106 133 135 132 136 137 136 129 125 120 104 75 37 8 357 349 346 340
213 147 199 262 276 284 255 75 119 82 85 86 79 91 112 115 102 109 103 99 100 104 105 109 109 106 107 123 122 128 134 138 129 123 115 107 92 45 11 356 351 343 340 334
189 193 170 223 224 151 314 132 125 104 94 98 107 91 74 104 109 108 99 101 107 104 105 99 102 108 115 119 120 124 128 130 125 117 111 90 55 21 3 350 341 344 334 325